NEWPRT Weather Reports


Display with metric or nautical units.
time (UTC)temp
F
wind
direction
speed
MPH
gust
MPH
rain 1hr
in
rain 24hr
in
rain mn
in
humidity
%
barometer
mb
20260905062728 0 0 0.0 0.0 0.00 0.00 0.00 51
20260905062204 0 0 0.0 0.0 0.00 0.00 0.00 51
20260905061640 0 0 0.0 0.0 0.00 0.00 0.00 55
20260905061118 0 0 0.0 0.0 0.00 0.00 0.00 54
20260905060554 0 0 0.0 0.0 0.00 0.00 0.00 55
20260905060031 0 0 0.0 0.0 0.00 0.00 0.00 56
20260905055508 0 0 0.0 0.0 0.00 0.00 0.00 53
20260905054945 0 0 0.0 1.0 0.00 0.00 0.00 53
20260905054422 0 0 0.0 1.0 0.00 0.00 0.00 54
20260905053859 0 0 0.0 0.0 0.00 0.00 0.00 53
20260905053336 0 0 0.0 0.0 0.00 0.00 0.00 53
20260905052813 0 0 0.0 0.0 0.00 0.00 0.00 52
20260905052250 0 0 0.0 0.0 0.00 0.00 0.00 53
20260905051728 0 0 0.0 0.0 0.00 0.00 0.00 50
20260905051204 0 0 0.0 3.0 0.00 0.25 0.00 53
20260905050641 0 134 0.0 3.0 0.00 0.25 0.00 53
20260905050119 0 121 2.0 3.0 0.00 0.25 0.00 51
20260905045555 0 0 0.0 0.0 0.00 0.25 0.00 53
20260905045032 0 0 0.0 0.0 0.00 0.25 0.00 54
20260905044509 0 0 0.0 0.0 0.00 0.25 0.00 53
20260905043946 0 0 0.0 1.0 0.00 0.26 0.00 54
20260905043424 0 0 0.0 1.0 0.00 0.26 0.00 54
20260905042900 0 65 0.0 1.0 0.00 0.26 0.00 56
20260905042341 0 123 0.0 1.0 0.00 0.26 0.00 55
20260905041814 0 0 0.0 0.0 0.00 0.26 0.00 55
20260905041251 0 0 0.0 0.0 0.00 0.26 0.00 53
20260905040729 0 0 0.0 0.0 0.00 0.26 0.00 49
20260905040205 0 0 0.0 0.0 0.00 0.26 0.00 52
20260905035642 0 0 0.0 0.0 0.00 0.26 0.00 48
20260905035119 0 0 0.0 0.0 0.00 0.26 0.00 52
20260905034559 0 0 0.0 0.0 0.00 0.26 0.00 51
20260905034033 0 0 0.0 0.0 0.00 0.30 0.00 53
20260905033510 0 0 0.0 0.0 0.00 0.30 0.00 54
20260905032948 0 0 0.0 0.0 0.00 0.30 0.00 54
20260905032426 0 0 0.0 0.0 0.00 0.30 0.00 52
20260905031901 0 0 0.0 0.0 0.00 0.30 0.00 52
20260905031338 0 0 0.0 0.0 0.00 0.30 0.00 54
20260905030815 0 0 0.0 0.0 0.00 0.30 0.00 54
20260905030252 0 0 0.0 0.0 0.00 0.30 0.00 50
20260905025729 0 0 0.0 0.0 0.00 0.30 0.00 59
20260905025206 0 0 0.0 0.0 0.00 0.30 0.00 59
20260905024643 0 0 0.0 3.0 0.00 0.30 0.00 58
20260905024120 0 113 0.0 3.0 0.00 0.38 0.00 59
20260905023558 0 113 0.0 3.0 0.00 0.38 0.00 60
20260905023034 0 120 1.0 5.0 0.00 0.38 0.00 58
20260905022511 0 121 1.0 5.0 0.00 0.38 0.00 56
20260905021948 0 102 1.0 5.0 0.00 0.38 0.00 52
20260905021425 0 0 0.0 1.0 0.00 0.38 0.00 48
20260905020903 0 260 0.0 1.0 0.00 0.38 0.00 48
20260905020339 0 0 0.0 0.0 0.00 0.38 0.00 46
20260905015816 0 238 0.0 0.0 0.00 0.38 0.00 48
20260905015253 0 0 0.0 0.0 0.00 0.38 0.00 44
20260905014730 0 0 0.0 0.0 0.00 0.38 0.00 44
20260905014207 0 232 0.0 4.0 0.00 0.39 0.00 48
20260905013644 0 116 0.0 4.0 0.00 0.39 0.00 41
20260905013121 0 137 1.0 4.0 0.00 0.39 0.00 49
20260905012558 0 91 1.0 5.0 0.00 0.39 0.00 49
20260905012035 0 103 2.0 5.0 0.00 0.39 0.00 49
20260905011512 0 114 3.0 5.0 0.00 0.39 0.00 50
20260905010949 0 98 1.0 5.0 0.00 0.39 0.00 47
20260905010426 0 114 3.0 5.0 0.00 0.39 0.00 50
20260905005903 0 105 0.0 5.0 0.00 0.39 0.00 51
20260905005341 0 109 0.0 5.0 0.00 0.39 0.00 54
20260905004817 0 96 0.0 5.0 0.00 0.39 0.00 56
20260905004254 0 105 2.0 5.0 0.00 0.48 0.00 55
20260905003731 0 100 2.0 4.0 0.00 0.48 0.00 52
20260905003208 0 0 0.0 0.0 0.00 0.48 0.00 55
20260905002645 0 0 0.0 3.0 0.00 0.48 0.00 48
20260905002122 0 0 0.0 3.0 0.00 0.48 0.00 53
20260905001559 0 116 0.0 3.0 0.00 0.48 0.00 54
20260905001036 0 109 1.0 4.0 0.00 0.48 0.00 55
20260905000514 0 112 1.0 4.0 0.00 0.48 0.00 52
20260904235949 0 124 3.0 4.0 0.00 0.48 0.00 54
20260904235426 0 99 1.0 3.0 0.00 0.48 0.00 55
20260904234903 0 98 0.0 3.0 0.00 0.48 0.00 56
20260904234340 0 123 0.0 3.0 0.00 0.94 0.00 53
20260904233817 0 99 0.0 5.0 0.00 0.94 0.48 51
20260904233255 0 117 1.0 5.0 0.00 0.94 0.48 55
20260904232732 0 0 0.0 0.0 0.00 0.94 0.48 55
20260904232208 0 0 0.0 0.0 0.00 0.94 0.48 53
20260904231646 0 0 0.0 0.0 0.00 0.94 0.48 50
20260904231122 0 0 0.0 3.0 0.00 0.94 0.48 51
20260904230559 0 92 0.0 3.0 0.00 0.94 0.48 50
20260904230037 0 106 0.0 3.0 0.01 0.94 0.48 47
20260904225513 0 0 0.0 1.0 0.01 0.94 0.48 48
20260904224950 0 26 0.0 3.0 0.01 0.94 0.48 47
20260904224427 0 44 0.0 3.0 0.01 0.94 0.48 46
20260904223904 0 0 1.0 3.0 0.01 0.93 0.48 45
20260904223341 0 37 0.0 3.0 0.01 0.93 0.48 47
20260904222818 0 37 0.0 2.0 0.01 0.93 0.48 46
20260904222255 0 0 0.0 0.0 0.01 0.93 0.48 51
20260904221732 0 0 0.0 0.0 0.01 0.93 0.48 56
20260904221209 0 0 0.0 1.0 0.01 0.93 0.48 54
20260904220646 0 0 0.0 1.0 0.01 0.93 0.48 52
20260904220123 0 35 0.0 1.0 0.00 0.93 0.48 42
20260904215600 0 82 0.0 1.0 0.00 0.93 0.48 43
20260904215037 0 352 0.0 1.0 0.00 0.93 0.47 43
20260904214514 0 0 0.0 1.0 0.00 0.93 0.47 47
20260904213952 0 0 0.0 1.0 0.00 0.93 0.47 44
20260904213428 0 107 0.0 2.0 0.00 0.93 0.47 43
20260904212905 0 166 0.0 2.0 0.00 0.93 0.47 41
20260904212342 0 162 0.0 1.0 0.00 0.93 0.47 46
20260904211819 0 317 0.0 2.0 0.00 0.93 0.47 47
20260904211256 0 36 0.0 2.0 0.00 0.93 0.47 45
20260904210733 0 133 0.0 2.0 0.00 0.93 0.47 47
20260904210210 0 82 0.0 1.0 0.00 0.93 0.47 47
20260904205647 0 116 0.0 2.0 0.00 0.93 0.47 48
20260904205124 0 0 0.0 2.0 0.00 0.93 0.47 47
20260904204601 0 95 0.0 2.0 0.00 0.93 0.47 50
20260904204038 0 26 1.0 1.0 0.00 0.93 0.47 48
20260904203516 0 0 0.0 0.0 0.00 0.93 0.47 50
20260904202952 0 0 0.0 4.0 0.00 0.93 0.47 50
20260904202429 0 65 0.0 4.0 0.00 0.93 0.47 53
20260904201906 0 110 0.0 3.0 0.00 0.93 0.47 48
20260904201343 0 159 0.0 3.0 0.00 0.93 0.47 51
20260904200820 0 126 0.0 7.0 0.00 0.93 0.47 48
20260904200257 0 112 0.0 7.0 0.00 0.93 0.47 48
20260904195734 0 106 0.0 6.0 0.00 0.93 0.47 46
20260904195212 0 159 0.0 5.0 0.00 0.93 0.47 48
20260904194649 0 190 0.0 5.0 0.00 0.93 0.47 49
20260904194125 0 119 0.0 7.0 0.00 0.93 0.47 48
20260904193602 0 240 0.0 7.0 0.00 0.93 0.47 50
20260904193039 0 177 0.0 7.0 0.00 0.93 0.47 51
20260904192516 0 215 0.0 2.0 0.00 0.93 0.47 52
20260904191953 0 175 0.0 4.0 0.00 0.93 0.47 54
20260904191430 0 103 1.0 4.0 0.00 0.93 0.47 54
20260904190907 0 147 0.0 4.0 0.00 0.93 0.47 52
20260904190344 0 266 0.0 5.0 0.00 0.93 0.47 52
20260904185821 0 212 0.0 5.0 0.00 0.93 0.47 54
20260904185258 0 100 0.0 4.0 0.00 0.93 0.47 56
20260904184735 0 238 0.0 4.0 0.00 0.93 0.47 56
20260904184212 0 68 0.0 5.0 0.00 0.93 0.47 56
20260904183649 0 88 0.0 5.0 0.00 0.93 0.47 55
20260904183126 0 163 1.0 5.0 0.00 0.93 0.47 54
20260904182603 0 141 0.0 2.0 0.00 0.93 0.47 53
20260904182040 0 229 0.0 2.0 0.00 0.93 0.47 58
20260904181517 0 137 0.0 6.0 0.00 0.93 0.47 56
20260904180954 0 173 1.0 6.0 0.00 0.93 0.47 58
20260904180431 0 124 1.0 6.0 0.00 0.93 0.47 56
20260904175908 0 79 1.0 5.0 0.00 0.93 0.47 58
20260904175345 0 110 0.0 4.0 0.00 0.93 0.47 57
20260904174822 0 197 0.0 4.0 0.00 0.93 0.47 59
20260904174259 0 142 0.0 4.0 0.00 0.93 0.47 60
20260904173736 0 284 1.0 4.0 0.00 0.93 0.47 62
20260904173213 0 151 0.0 4.0 0.00 0.93 0.47 62
20260904172650 0 169 0.0 8.0 0.00 0.93 0.47 62
20260904172127 0 114 0.0 8.0 0.00 0.93 0.47 65
20260904171604 0 85 0.0 8.0 0.00 0.93 0.47 64
20260904171041 0 120 0.0 4.0 0.00 0.93 0.47 63
20260904170518 0 224 0.0 4.0 0.00 0.93 0.47 57
20260904165956 0 144 0.0 3.0 0.00 0.93 0.47 60
20260904165432 0 201 0.0 3.0 0.00 0.93 0.47 60
20260904164908 0 200 1.0 8.0 0.00 0.93 0.47 60
20260904164346 0 155 2.0 8.0 0.00 0.93 0.47 60
20260904163822 0 127 3.0 6.0 0.00 0.93 0.47 60
20260904163259 0 141 1.0 6.0 0.00 0.93 0.47 61
20260904162736 0 128 2.0 6.0 0.00 0.93 0.47 62
20260904162213 0 109 0.0 6.0 0.00 0.93 0.47 67
20260904161650 0 130 0.0 6.0 0.00 0.93 0.47 71
20260904161127 0 92 1.0 5.0 0.00 0.93 0.47 67
20260904160605 0 126 0.0 5.0 0.00 0.93 0.47 73
20260904160041 0 190 0.0 5.0 0.00 0.93 0.47 74
20260904155518 0 186 0.0 11.0 0.00 0.93 0.47 75
20260904154955 0 126 0.0 11.0 0.01 0.93 0.47 74
20260904154432 0 144 2.0 11.0 0.01 0.93 0.47 72
20260904153909 0 175 0.0 8.0 0.02 0.92 0.47 73
20260904153346 0 135 0.0 8.0 0.03 0.92 0.47 74
20260904152823 0 161 0.0 5.0 0.03 0.92 0.47 72
20260904152300 0 177 1.0 8.0 0.03 0.92 0.47 73
20260904151737 0 200 3.0 8.0 0.03 0.92 0.47 75
20260904151214 0 140 2.0 6.0 0.03 0.92 0.47 74
20260904150651 0 141 0.0 6.0 0.03 0.92 0.47 78
20260904150128 0 137 0.0 6.0 0.03 0.92 0.47 79
20260904145605 0 173 1.0 8.0 0.03 0.92 0.47 75
20260904145133 0 135 0.0 8.0 0.02 0.92 0.47 73
20260904145042 0 135 0.0 8.0 0.02 0.92 0.47 73
20260904144519 0 119 0.0 8.0 0.02 0.92 0.46 67
20260904143957 0 116 0.0 8.0 0.01 0.90 0.45 71
20260904143433 0 119 0.0 8.0 0.01 0.90 0.45 78
20260904142910 0 217 1.0 8.0 0.01 0.90 0.45 77
20260904142347 0 172 2.0 8.0 0.01 0.90 0.44 75
20260904141825 0 135 1.0 7.0 0.01 0.90 0.44 73
20260904141301 0 154 0.0 5.0 0.01 0.90 0.44 74
20260904140738 0 117 1.0 10.0 0.01 0.90 0.44 74
20260904140215 0 151 2.0 10.0 0.01 0.90 0.44 76
20260904135652 0 168 0.0 10.0 0.01 0.90 0.44 77
20260904135129 0 162 2.0 7.0 0.01 0.90 0.44 77
20260904134606 0 135 0.0 7.0 0.01 0.90 0.44 78
20260904134043 0 138 2.0 8.0 0.01 0.89 0.44 77
20260904133522 0 197 2.0 8.0 0.01 0.89 0.44 73
20260904132957 0 162 2.0 8.0 0.00 0.89 0.44 74
20260904132434 0 151 1.0 9.0 0.00 0.89 0.43 75
20260904131911 0 281 3.0 9.0 0.00 0.89 0.43 73
20260904131348 0 144 2.0 8.0 0.01 0.89 0.43 74
20260904130826 0 110 2.0 7.0 0.01 0.89 0.43 72
20260904130302 0 126 1.0 7.0 0.01 0.89 0.43 71
20260904125739 0 166 2.0 6.0 0.01 0.89 0.43 72
20260904125216 0 210 2.0 6.0 0.01 0.89 0.43 73
20260904124653 0 149 2.0 6.0 0.01 0.89 0.43 75
20260904124130 0 187 1.0 7.0 0.01 0.88 0.43 77
20260904123608 0 148 0.0 7.0 0.01 0.88 0.43 76
20260904123044 0 58 0.0 7.0 0.01 0.88 0.43 74
20260904122523 0 120 2.0 6.0 0.01 0.88 0.43 73
20260904121958 0 156 0.0 6.0 0.01 0.88 0.43 74
20260904121435 0 191 2.0 11.0 0.01 0.88 0.43 73
20260904120912 0 198 1.0 11.0 0.00 0.88 0.42 73
20260904120349 0 197 3.0 8.0 0.00 0.88 0.42 74
20260904115826 0 277 3.0 5.0 0.00 0.88 0.42 75
20260904115306 0 72 2.0 8.0 0.00 0.88 0.42 74
20260904114740 0 141 1.0 8.0 0.00 0.88 0.42 78
20260904114217 0 138 0.0 8.0 0.00 0.88 0.42 76
20260904113654 0 252 0.0 6.0 0.00 0.88 0.42 75
20260904113131 0 140 1.0 11.0 0.00 0.88 0.42 76
20260904112608 0 121 2.0 11.0 0.00 0.88 0.42 75
20260904112045 0 134 1.0 11.0 0.00 0.88 0.42 75
20260904111522 0 42 0.0 6.0 0.00 0.88 0.42 72
20260904110959 0 138 0.0 6.0 0.00 0.88 0.42 74
20260904110436 0 140 2.0 9.0 0.00 0.88 0.42 71
20260904105913 0 106 1.0 9.0 0.00 0.88 0.42 72
20260904105350 0 159 1.0 6.0 0.00 0.88 0.42 73
20260904104827 0 138 1.0 8.0 0.00 0.88 0.42 73
20260904104304 0 127 0.0 8.0 0.00 0.88 0.42 73
20260904103741 0 173 0.0 7.0 0.00 0.88 0.42 73
20260904103218 0 120 0.0 7.0 0.00 0.88 0.42 74
20260904102655 0 96 1.0 7.0 0.00 0.88 0.42 73
20260904102132 0 112 1.0 4.0 0.00 0.88 0.42 73
20260904101609 0 247 0.0 3.0 0.00 0.88 0.42 73
20260904101047 0 134 1.0 3.0 0.00 0.88 0.42 74
20260904100523 0 103 0.0 4.0 0.00 0.88 0.42 73
20260904100000 0 120 0.0 4.0 0.00 0.88 0.42 73
20260904095437 0 82 0.0 4.0 0.00 0.88 0.42 74
20260904094914 0 23 0.0 3.0 0.01 0.88 0.42 74
20260904094351 0 91 1.0 7.0 0.01 0.87 0.42 74
20260904093829 0 100 1.0 7.0 0.01 0.87 0.42 75
20260904093305 0 79 0.0 3.0 0.02 0.87 0.42 73
20260904092742 0 127 0.0 8.0 0.02 0.87 0.42 74
20260904092219 0 0 0.0 8.0 0.04 0.87 0.42 73
20260904091655 0 166 0.0 8.0 0.04 0.87 0.42 73
20260904091132 0 145 2.0 7.0 0.06 0.87 0.42 74
20260904090611 0 147 0.0 7.0 0.06 0.87 0.42 75
20260904090046 0 141 0.0 7.0 0.08 0.87 0.42 76
20260904085523 0 116 0.0 7.0 0.08 0.87 0.42 79
20260904085000 0 250 1.0 5.0 0.09 0.87 0.42 77
20260904084437 0 173 0.0 5.0 0.09 0.87 0.41 76
20260904083915 0 85 0.0 6.0 0.09 0.78 0.41 74
20260904083351 0 137 1.0 6.0 0.09 0.78 0.41 73
20260904082829 0 89 1.0 6.0 0.09 0.78 0.40 70
20260904082306 0 138 1.0 7.0 0.08 0.78 0.39 75
20260904081742 0 23 1.0 7.0 0.08 0.78 0.38 75
20260904081219 0 75 3.0 7.0 0.07 0.78 0.37 76
20260904080656 0 40 3.0 11.0 0.07 0.78 0.36 75
20260904080134 0 152 2.0 11.0 0.07 0.78 0.36 71
20260904075610 0 128 0.0 11.0 0.07 0.78 0.35 67
20260904075047 0 135 1.0 11.0 0.08 0.78 0.34 68
20260904074524 0 187 0.0 11.0 0.08 0.78 0.32 76
20260904074001 0 152 1.0 11.0 0.08 0.70 0.32 75
20260904073438 0 128 0.0 10.0 0.08 0.70 0.32 72
20260904072915 0 149 1.0 10.0 0.07 0.70 0.32 68
20260904072352 0 149 1.0 9.0 0.06 0.70 0.31 71
20260904071829 0 235 3.0 9.0 0.06 0.70 0.30 74
20260904071306 0 120 2.0 9.0 0.05 0.70 0.30 73
20260904070743 0 147 2.0 8.0 0.05 0.70 0.30 71
20260904070220 0 194 1.0 7.0 0.03 0.70 0.29 69
20260904065657 0 144 1.0 6.0 0.03 0.70 0.28 65
20260904065134 0 147 0.0 6.0 0.00 0.70 0.27 59
20260904064611 0 135 0.0 5.0 0.00 0.70 0.25 70
20260904064048 0 137 1.0 5.0 0.00 0.70 0.24 79
20260904063525 0 116 0.0 11.0 0.00 0.70 0.24 77